Weather History for KGDP - September, 2012

Change the Weather History Date:

Sunday, September 23, 2012

  Actual Average Record
Temperature  
Mean Temperature 74 °F -  
Max Temperature 84 °F 77 °F 86 °F (1999)
Min Temperature 64 °F 56 °F 48 °F (2006)
Cooling Degree Days 9    
Growing Degree Days 24 (Base 50)    
Moisture  
Dew Point 24 °F    
Average Humidity 17    
Maximum Humidity 25    
Minimum Humidity 9    
Precipitation  
Precipitation 0.00 in - - ()
Sea Level Pressure  
Sea Level Pressure 30.09 in    
Wind  
Wind Speed 12 mph (ESE)    
Max Wind Speed 22 mph    
Max Gust Speed 26 mph    
Visibility 9 miles    
Events      
Averages and records for this station are not official NWS values.
T = Trace of Precipitation, MM = Missing Value Source: NWS Daily Summary

Daily Weather History Graph

Daily Weather History Graph

Search for Another Location

Airport or City:

Trip Planner

Search our weather history database for the weather conditions in past years. The results will help you decide how hot, cold, wet, or windy it might be!

Date:

Astronomy

Sep. 23, 2012 Rise Set
Actual Time 6:48 AM MDT 6:53 PM MDT
Civil Twilight 6:24 AM MDT 7:18 PM MDT
Nautical Twilight 5:55 AM MDT 7:46 PM MDT
Astronomical Twilight 5:27 AM MDT 8:15 PM MDT
Moon 2:38 PM MDT (9/23) 12:23 AM MDT (9/23)
Length of Visible Light 12h 54m
Length of Day
12h 05m
First Quarter, 60% of the Moon is Illuminated
Sep 23
First Quarter
Sep 29
Full
Oct 8
Last Quarter
Oct 15
New
Oct 21
First Quarter

Hourly Weather History & Observations

Time (MDT) Temp. Dew Point Humidity Pressure Visibility Wind Dir Wind Speed Gust Speed Precip Events Conditions
12:51 AM 68.0 °F 25.0 °F 20% 30.05 in 10.0 mi NE 13.8 mph - N/A   Clear
1:51 AM 66.9 °F 25.0 °F 21% 30.06 in 10.0 mi NE 13.8 mph - N/A   Clear
2:51 AM 70.0 °F 27.0 °F 20% 30.06 in 10.0 mi NE 4.6 mph - N/A   Clear
3:51 AM 70.0 °F 23.0 °F 17% 30.05 in 9.0 mi South 8.1 mph - N/A   Clear
4:51 AM 68.0 °F 19.9 °F 16% 30.06 in 10.0 mi SSW 6.9 mph - N/A   Clear
5:51 AM 66.9 °F 19.9 °F 17% 30.09 in 10.0 mi SSW 8.1 mph - N/A   Clear
6:51 AM 64.9 °F 27.0 °F 24% 30.12 in 9.0 mi SSW 8.1 mph - N/A   Clear
7:51 AM 66.9 °F 30.0 °F 25% 30.14 in 9.0 mi South 9.2 mph - N/A   Clear
8:51 AM 69.1 °F 30.9 °F 24% 30.16 in 9.0 mi SW 5.8 mph - N/A   Clear
9:51 AM 73.0 °F 30.0 °F 20% 30.15 in 10.0 mi WSW 4.6 mph - N/A   Clear
10:51 AM 77.0 °F 28.0 °F 17% 30.15 in 9.0 mi SSW 9.2 mph - N/A   Clear
11:51 AM 82.0 °F 28.0 °F 14% 30.12 in 9.0 mi WSW 10.4 mph - N/A   Clear
12:51 PM 82.9 °F 26.1 °F 13% 30.09 in 9.0 mi South 8.1 mph - N/A   Clear
1:51 PM 84.0 °F 18.0 °F 9% 30.06 in 8.0 mi East 16.1 mph 23.0 mph N/A   Clear
1:58 PM 82.0 °F 18.0 °F 9% 30.31 in 8.0 mi East 11.5 mph 24.2 mph N/A   Clear
2:51 PM 82.0 °F 18.0 °F 9% 30.04 in 7.0 mi East 17.3 mph 26.5 mph N/A   Clear
3:51 PM 81.0 °F 19.9 °F 10% 30.02 in 7.0 mi East 19.6 mph 26.5 mph N/A   Clear
4:51 PM 79.0 °F 19.9 °F 11% 30.03 in 9.0 mi East 21.9 mph - N/A   Clear
5:51 PM 77.0 °F 19.0 °F 11% 30.04 in 10.0 mi East 21.9 mph - N/A   Clear
6:51 PM 73.9 °F 24.1 °F 16% 30.07 in 10.0 mi East 18.4 mph - N/A   Clear
7:51 PM 70.0 °F 23.0 °F 17% 30.08 in 10.0 mi East 16.1 mph - N/A   Clear
8:51 PM 68.0 °F 24.1 °F 19% 30.10 in 10.0 mi NE 17.3 mph - N/A   Clear
9:51 PM 68.0 °F 25.0 °F 20% 30.09 in 10.0 mi ENE 20.7 mph - N/A   Clear
10:51 PM - - N/A% - 0.7 mi ENE 19.6 mph - N/A   Unknown
11:51 PM 66.9 °F 30.0 °F 25% 30.06 in 10.0 mi ENE 5.8 mph - N/A   Clear